• In Latvia
  • List of Countries
  • For 7 days
  • Water Temperature
  • Satellite Maps
  • Weather Map
  • Weather Widgets
  • user-avatar
    Login

    Hourly Weather Biskira

    Today, 27 February, Monday

    Time Temperature Precipitation Wind Pressure Humidity
    00:00 +14°C° 0 mm 2 mps 756 mmHg 56%
    01:00 +13°C° 0 mm 2 mps 755 mmHg 58%
    02:00 +13°C° 0 mm 1 mps 755 mmHg 60%
    03:00 +12°C° 0 mm 1 mps 755 mmHg 61%
    04:00 +12°C° 0 mm 1 mps 755 mmHg 63%
    05:00 +11°C° 0 mm 1 mps 755 mmHg 65%
    06:00 +11°C° 0 mm 1 mps 755 mmHg 67%
    07:00 +13°C° 0 mm 1 mps 755 mmHg 60%
    08:00 +14°C° 0 mm 1 mps 755 mmHg 54%
    09:00 +16°C° 0 mm 1 mps 755 mmHg 48%
    10:00 +17°C° 0 mm 2 mps 755 mmHg 44%
    11:00 +18°C° 0 mm 2 mps 754 mmHg 40%
    12:00 +19°C° 0 mm 2 mps 754 mmHg 35%
    13:00 +20°C° 0 mm 2 mps 754 mmHg 33%
    14:00 +22°C° 0 mm 1 mps 753 mmHg 31%
    15:00 +22°C° 0 mm 1 mps 753 mmHg 29%
    16:00 +21°C° 0 mm 1 mps 752 mmHg 32%
    17:00 +20°C° 0 mm 1 mps 752 mmHg 34%
    18:00 +19°C° 0 mm 1 mps 752 mmHg 37%
    19:00 +18°C° 0 mm 1 mps 752 mmHg 38%
    20:00 +17°C° 0 mm 2 mps 753 mmHg 39%
    21:00 +16°C° 0 mm 2 mps 753 mmHg 41%
    22:00 +16°C° 0 mm 2 mps 753 mmHg 42%
    23:00 +15°C° 0 mm 2 mps 753 mmHg 43%

    Tomorrow, 28 February, Tuesday

    Time Temperature Precipitation Wind Pressure Humidity
    00:00 +15°C° 0 mm 2 mps 753 mmHg 44%
    01:00 +15°C° 0 mm 2 mps 753 mmHg 45%
    02:00 +14°C° 0 mm 2 mps 753 mmHg 46%
    03:00 +14°C° 0 mm 2 mps 753 mmHg 47%
    04:00 +14°C° 0 mm 2 mps 753 mmHg 48%
    05:00 +13°C° 0 mm 2 mps 753 mmHg 49%
    06:00 +13°C° 0 mm 2 mps 753 mmHg 50%
    07:00 +15°C° 0 mm 2 mps 753 mmHg 44%
    08:00 +17°C° 0 mm 2 mps 753 mmHg 39%
    09:00 +18°C° 0 mm 3 mps 753 mmHg 34%
    10:00 +19°C° 0 mm 3 mps 753 mmHg 31%
    11:00 +21°C° 0 mm 2 mps 753 mmHg 28%
    12:00 +23°C° 0 mm 2 mps 752 mmHg 26%
    13:00 +23°C° 0 mm 2 mps 752 mmHg 25%
    14:00 +24°C° 0 mm 2 mps 751 mmHg 24%
    15:00 +24°C° 0 mm 1 mps 751 mmHg 23%
    16:00 +23°C° 0 mm 1 mps 751 mmHg 26%
    17:00 +21°C° 0 mm 1 mps 751 mmHg 29%
    18:00 +20°C° 0 mm 1 mps 751 mmHg 32%
    19:00 +20°C° 0 mm 1 mps 752 mmHg 32%
    20:00 +19°C° 0 mm 1 mps 752 mmHg 33%
    21:00 +19°C° 0 mm 1 mps 752 mmHg 34%
    22:00 +18°C° 0 mm 1 mps 753 mmHg 35%
    23:00 +18°C° 0 mm 1 mps 753 mmHg 36%

    Day after tomorrow, 1 March, Wednesday

    Time Temperature Precipitation Wind Pressure Humidity
    00:00 +16°C° 0 mm 1 mps 753 mmHg 38%
    01:00 +16°C° 0 mm 1 mps 753 mmHg 40%
    02:00 +16°C° 0 mm 2 mps 753 mmHg 42%
    03:00 +15°C° 0 mm 2 mps 753 mmHg 44%
    04:00 +14°C° 0 mm 3 mps 753 mmHg 47%
    05:00 +13°C° 0 mm 3 mps 753 mmHg 50%
    06:00 +13°C° 0 mm 4 mps 753 mmHg 52%
    07:00 +15°C° 0 mm 4 mps 754 mmHg 47%
    08:00 +18°C° 0 mm 4 mps 754 mmHg 42%
    09:00 +20°C° 0 mm 4 mps 755 mmHg 36%
    10:00 +21°C° 0 mm 4 mps 755 mmHg 32%
    11:00 +22°C° 0 mm 4 mps 754 mmHg 28%
    12:00 +25°C° 0 mm 3 mps 754 mmHg 24%
    13:00 +25°C° 0 mm 3 mps 754 mmHg 23%
    14:00 +25°C° 0 mm 3 mps 754 mmHg 22%
    15:00 +26°C° 0 mm 3 mps 753 mmHg 22%
    16:00 +24°C° 0 mm 3 mps 754 mmHg 25%
    17:00 +23°C° 0 mm 2 mps 754 mmHg 28%
    18:00 +20°C° 0 mm 2 mps 754 mmHg 31%
    19:00 +20°C° 0 mm 2 mps 755 mmHg 32%
    20:00 +19°C° 0 mm 2 mps 755 mmHg 33%
    21:00 +19°C° 0 mm 1 mps 756 mmHg 35%
    22:00 +18°C° 0 mm 2 mps 756 mmHg 35%
    23:00 +17°C° 0 mm 2 mps 756 mmHg 36%

    2 March, Thursday

    Time Temperature Precipitation Wind Pressure Humidity
    00:00 +17°C° 0 mm 2 mps 756 mmHg 37%
    01:00 +16°C° 0 mm 2 mps 756 mmHg 39%
    02:00 +16°C° 0 mm 2 mps 755 mmHg 40%
    03:00 +15°C° 0 mm 2 mps 755 mmHg 42%
    04:00 +15°C° 0 mm 2 mps 755 mmHg 44%
    05:00 +15°C° 0 mm 2 mps 756 mmHg 46%
    06:00 +14°C° 0 mm 2 mps 756 mmHg 49%
    07:00 +16°C° 0 mm 3 mps 756 mmHg 48%
    08:00 +17°C° 0 mm 4 mps 756 mmHg 47%
    09:00 +19°C° 0 mm 5 mps 756 mmHg 47%
    10:00 +20°C° 0 mm 5 mps 756 mmHg 43%
    11:00 +21°C° 0 mm 4 mps 756 mmHg 40%
    12:00 +22°C° 0 mm 4 mps 755 mmHg 36%
    13:00 +22°C° 0 mm 4 mps 755 mmHg 34%
    14:00 +24°C° 0 mm 3 mps 754 mmHg 33%
    15:00 +24°C° 0 mm 3 mps 753 mmHg 31%
    16:00 +22°C° 0 mm 3 mps 753 mmHg 34%
    17:00 +21°C° 0 mm 2 mps 753 mmHg 37%
    18:00 +20°C° 0 mm 2 mps 753 mmHg 40%
    19:00 +19°C° 0 mm 2 mps 754 mmHg 41%
    20:00 +19°C° 0 mm 3 mps 754 mmHg 42%
    21:00 +19°C° 0 mm 3 mps 754 mmHg 43%
    22:00 +18°C° 0 mm 3 mps 754 mmHg 44%
    23:00 +18°C° 0 mm 3 mps 754 mmHg 45%

    3 March, Friday

    Time Temperature Precipitation Wind Pressure Humidity
    00:00 +17°C° 0 mm 2 mps 754 mmHg 45%
    01:00 +17°C° 0 mm 2 mps 753 mmHg 46%
    02:00 +16°C° 0 mm 2 mps 753 mmHg 47%
    03:00 +16°C° 0 mm 2 mps 753 mmHg 48%
    04:00 +16°C° 0 mm 2 mps 753 mmHg 48%
    05:00 +15°C° 0 mm 2 mps 753 mmHg 48%
    06:00 +15°C° 0 mm 2 mps 753 mmHg 49%
    07:00 +17°C° 0 mm 3 mps 753 mmHg 43%
    08:00 +19°C° 0 mm 3 mps 753 mmHg 38%
    09:00 +21°C° 0 mm 4 mps 753 mmHg 32%
    10:00 +22°C° 0 mm 4 mps 753 mmHg 29%
    11:00 +23°C° 0 mm 4 mps 752 mmHg 26%
    12:00 +25°C° 0 mm 4 mps 752 mmHg 23%
    13:00 +26°C° 0 mm 4 mps 751 mmHg 22%
    14:00 +26°C° 0 mm 4 mps 750 mmHg 21%
    15:00 +27°C° 0 mm 4 mps 750 mmHg 20%
    16:00 +25°C° 0 mm 4 mps 750 mmHg 22%
    17:00 +23°C° 0 mm 4 mps 750 mmHg 24%
    18:00 +22°C° 0 mm 4 mps 750 mmHg 26%
    19:00 +21°C° 0 mm 4 mps 750 mmHg 27%
    20:00 +21°C° 0 mm 4 mps 751 mmHg 27%
    21:00 +20°C° 0 mm 4 mps 751 mmHg 28%
    22:00 +20°C° 0 mm 4 mps 751 mmHg 28%
    23:00 +19°C° 0 mm 4 mps 751 mmHg 29%

    4 March, Saturday

    Time Temperature Precipitation Wind Pressure Humidity
    00:00 +19°C° 0 mm 4 mps 751 mmHg 29%
    01:00 +19°C° 0 mm 4 mps 750 mmHg 29%
    02:00 +18°C° 0 mm 4 mps 750 mmHg 30%
    03:00 +18°C° 0 mm 4 mps 750 mmHg 30%
    04:00 +17°C° 0 mm 4 mps 750 mmHg 30%
    05:00 +17°C° 0 mm 4 mps 750 mmHg 30%
    06:00 +17°C° 0 mm 4 mps 750 mmHg 31%
    07:00 +18°C° 0 mm 4 mps 750 mmHg 28%
    08:00 +20°C° 0 mm 5 mps 750 mmHg 24%
    09:00 +22°C° 0 mm 6 mps 750 mmHg 21%
    10:00 +23°C° 0 mm 6 mps 750 mmHg 20%
    11:00 +24°C° 0 mm 6 mps 749 mmHg 19%
    12:00 +26°C° 0 mm 6 mps 749 mmHg 17%
    13:00 +27°C° 0 mm 6 mps 748 mmHg 17%
    14:00 +28°C° 0 mm 7 mps 747 mmHg 16%
    15:00 +29°C° 0 mm 7 mps 746 mmHg 16%
    16:00 +28°C° 0 mm 7 mps 746 mmHg 17%
    17:00 +27°C° 0 mm 6 mps 746 mmHg 19%
    18:00 +26°C° 0 mm 6 mps 746 mmHg 20%
    19:00 +23°C° 0.2 mm 6 mps 746 mmHg 27%
    20:00 +21°C° 0.2 mm 7 mps 747 mmHg 34%
    21:00 +20°C° 0.2 mm 8 mps 748 mmHg 42%
    22:00 +17°C° 0.2 mm 8 mps 748 mmHg 44%
    23:00 +15°C° 0.2 mm 9 mps 749 mmHg 46%
    Show more